Miscellaneous Local Product
Issued by NWS Hastings, NE

Home | Current Version | Previous Version | Text Only | Print | Product List | Glossary Off
Versions: 1 2 3 4 5 6 7 8 9 10 11 12 13 14 15 16 17 18 19 20 21 22 23 24 25 26 27 28 29 30 31 32 33 34 35 36 37 38 39 40 41 42 43 44 45 46 47 48 49 50

000
AXUS43 KGID 261302
MISGRI

GID CWA HOURLY WEATHER ROUNDUP
NATIONAL WEATHER SERVICE HASTINGS NE
700 AM CST THU FEB 26 2015

NOTE: "FAIR" INDICATES FEW OR NO CLOUDS BELOW 12,000 FEET WITH NO
SIGNIFICANT WEATHER AND/OR OBSTRUCTIONS TO VISIBILITY.

...SOUTH CENTRAL NEBRASKA...

CITY           SKY/WX    TMP DP  RH WIND       PRES   REMARKS
GRAND ISLAND   CLEAR      1  -7  68 N16       30.45R WCI -19
HASTINGS       FAIR       3  -5  69 N18       30.41R WCI -17
KEARNEY        CLEAR      3  -4  72 N16G22    30.41S WCI -16
ORD            CLEAR      1  -5  75 N8        30.42R WCI -13
YORK             N/A      1  -4  78 N16G24    30.43R WCI -18
AURORA         CLEAR      2  -6  69 N22       30.42R WCI -20
LEXINGTON      CLEAR      4  -1  81 N8        30.39S WCI -10
HOLDREGE       CLEAR      5  -2  71 N14       30.39S WCI -12
HEBRON         CLEAR      5  -4  66 N14G20    30.44R WCI -12

...NEBRASKA PANHANDLE...

CITY           SKY/WX    TMP DP  RH WIND       PRES   REMARKS
CHADRON        LGT SNOW   7   1  76 NE8       30.36S WCI  -6
ALLIANCE       CLOUDY     9   4  80 NE10      30.27S WCI  -5
SCOTTSBLUFF    CLOUDY    10   2  69 NE9       30.28R WCI  -3
SIDNEY         CLOUDY    10   4  76 NE6       30.24S WCI   0

...WESTERN AND NORTH CENTRAL NEBRASKA...

CITY           SKY/WX    TMP DP  RH WIND       PRES   REMARKS
VALENTINE      PTCLDY     0  -6  76 N8        30.42R WCI -14
AINSWORTH      CLEAR     -2  -6  82 N10       30.40R WCI -18
ONEILL         PTCLDY    -3  -8  82 NW9       30.44R WCI -19
BROKEN BOW     CLEAR      1  -4  79 N6        30.38R WCI -10
IMPERIAL         N/A     12   1  61 N17       30.33R WCI  -5
NORTH PLATTE   CLEAR      4  -2  76 NW7       30.38R WCI  -8
MCCOOK         CLEAR      8   1  73 NE6       30.38S WCI  -2

...EASTERN NEBRASKA...

CITY           SKY/WX    TMP DP  RH WIND       PRES   REMARKS
NORFOLK        CLEAR     -1  -7  75 NW16      30.45R WCI -21
SO SIOUX CITY  CLEAR     -2  -9  72 NW17      30.48R WCI -23
TEKAMAH        CLEAR      0  -7  72 N15       30.47R WCI -19
COLUMBUS       CLEAR      0 -15  50 N14       30.45S WCI -19
ALBION         CLEAR     -1  -8  71 N10G16    30.44R WCI -17
OMAHA EPPLEY   PTCLDY     1  -5  75 N14       30.44R WCI -17
OFFUTT AFB     CLEAR      2  -6  68 NW18G25   30.43R WCI -18
MILLARD        CLEAR      3  -5  69 N8G16     30.45R WCI -11
LINCOLN        CLEAR      3  -5  69 N23G30    30.45R WCI -19
NEBRASKA CITY  CLEAR      3  -6  66 N17G23    30.40R WCI -17
BEATRICE       CLEAR      4  -3  72 N24       30.43R WCI -19
FALLS CITY     CLEAR      5  -2  72 NW14G22   30.40R WCI -12

...NORTHERN KANSAS...

CITY           SKY/WX    TMP DP  RH WIND       PRES   REMARKS
GOODLAND       CLOUDY    14   8  77 N10       30.29R WCI   1
HILL CITY      CLEAR      9   1  70 N8        30.41R WCI  -3
NORTON         SUNNY      9   0  66 N9        30.38  WCI  -5
PHILLIPSBURG   CLEAR     10   3  72 N8        30.43S WCI  -1
SMITH CENTER   CLEAR      7   3  85 N14       30.43S WCI -10
BELOIT         CLEAR      9   1  72 N13       30.45R WCI  -7
HAYS           PTCLDY    10  -6  48 N20G25    30.39R WCI  -8
RUSSELL        PTCLDY     8   0  69 N13       30.40R WCI  -8
CONCORDIA      CLEAR      6  -1  73 N20G25    30.42R WCI -14
SALINA         CLEAR     10  -1  61 N17G30    30.44R WCI  -8
TOPEKA         CLEAR      9   1  70 NW12G26   30.40R WCI  -6



USA.gov is the U.S. government's official web portal to all federal, state and local government web resources and services.